HULIANWAN GAOGUI-02 (H*)

Last updated on Thu Nov 21 2024 00:02:45 GMT+0000 (Coordinated Universal Time)

1 60327U 24135A 24325.51439705 -.00000173 00000+0 00000+0 0 9993 2 60327 0.0426 67.5934 0003943 183.0311 147.6439 1.00269306 1745
UTC large
Height (km)
Speed (km/s)
/
Latitude / Longitude
Inclination (degrees)
Orbital Period (minutes)
Azimuth
Elevation
Range (km)
Doppler Factor

Next 0 passes for location: London (51.5072 / 0.1276)

Sorry there are no passes over London.